Regional Weather Roundup
Issued by NWS Albany, NY

Home | Current Version | Previous Version | Text Only | Print | Product List | Glossary On
Versions: 1 2 3 4 5 6 7 8 9 10 11 12 13 14 15 16 17 18 19 20 21 22 23 24 25 26 27 28 29 30 31 32 33 34 35 36 37 38 39 40 41 42 43 44 45 46 47 48 49 50
048
ASUS41 KALY 300210
RWRALY

NEW YORK STATE HOURLY WEATHER ROUNDUP
NATIONAL WEATHER SERVICE ALBANY NY
1000 PM EDT FRI JUL 29 2016

NOTE: "FAIR" INDICATES FEW OR NO CLOUDS BELOW 12,000 FEET WITH NO
SIGNIFICANT WEATHER AND/OR NO OBSTRUCTIONS TO VISIBILITY.

NYZ032-033-038>043-046>054-057>066-NYZ062>081-082-084-300300-
EAST


CITY           SKY/WX    TMP DP  RH WIND       PRES   REMARKS
ALBANY         PTCLDY    75  57  53 N9        29.93R
GLENS FALLS    PTCLDY    73  57  57 N9        29.95R
POUGHKEEPSIE   CLEAR     76  70  82 CALM      29.90R
NEWBURGH       PTCLDY    75  70  83 CALM      29.92S
MONTGOMERY     CLEAR     71  70  96 SW3       29.92R
WHITE PLAINS   PTCLDY    75  69  81 CALM      29.93R
ISLIP          CLOUDY    73  70  90 SW5       29.90R
NEW YORK CITY  PTCLDY    80  67  64 S8        29.90R
CENTRAL PARK   CLEAR     77  67  71 CALM      29.93R
$$

NYZ005>009-017-018-044>046-055-056-300300-
CENTRAL


CITY           SKY/WX    TMP DP  RH WIND       PRES   REMARKS
FULTON         CLEAR     71  62  73 N6        29.98R
SYRACUSE       PTCLDY    71  58  63 NW3       29.96R
ROME           CLEAR     73  56  54 NE8       29.97R
ELMIRA         MOCLDY    75  57  53 NE6       29.98R
BINGHAMTON     PTCLDY    72  54  53 N10       30.01R
MONTICELLO     CLEAR     72  66  83 CALM      29.99R
$$

NYZ026>034-041>043-087-300300-
NORTH


CITY           SKY/WX    TMP DP  RH WIND       PRES   REMARKS
WATERTOWN      CLEAR     70  54  56 NE9       30.00R
FORT DRUM      NOT AVBL
MASSENA        PTCLDY    68  54  60 N9        30.02R
SARANAC LAKE   CLEAR     57  54  89 CALM      30.03R
PLATTSBURGH    CLOUDY    70  59  68 NW7       29.98R
$$

NYZ001>004-010>016-019>021-085-300300-
WEST


CITY           SKY/WX    TMP DP  RH WIND       PRES   REMARKS
NIAGARA FALLS  MOCLDY    73  60  63 NE3       29.98R
BUFFALO        MOCLDY    74  61  63 NE5       29.99R
DUNKIRK        MOCLDY    73  64  73 NE5       29.98R
JAMESTOWN      CLOUDY    68  63  83 CALM      30.03R
WELLSVILLE     CLOUDY    71  60  68 NE6       30.06R
ROCHESTER      MOCLDY    72  60  66 CALM      30.00R
PENN YAN       PTCLDY    69  57  65 CALM      30.01R
$$

             KEY
       WCI = WIND CHILL INDEX
       VSB = VISIBILITY
       HX  = HEAT INDEX
$$




USA.gov is the U.S. government's official web portal to all federal, state and local government web resources and services.